Back to Previous

Regional Weather Roundup

000
ASUS44 KLZK 091605
RWRLZK

WEATHER ROUNDUP FOR ARKANSAS
NATIONAL WEATHER SERVICE LITTLE ROCK AR
1000 AM CST TUE FEB 09 2016

NOTE: "FAIR" INDICATES FEW OR NO CLOUDS BELOW 12,000 FEET WITH NO
SIGNIFICANT WEATHER AND/OR OBSTRUCTIONS TO VISIBILITY.

ARZ001-003-010-029-091700-
NORTHWEST ARKANSAS
  
CITY           SKY/WX    TMP DP  RH WIND       PRES   REMARKS
FAYETTEVILLE   SUNNY     34  15  46 NW20G31   30.12R WCI  23          
FORT SMITH     SUNNY     41  14  33 NW20G25   30.17R                  
HARRISON       SUNNY     33  12  41 NW18G28   30.05R WCI  22          
BENTONVILLE    SUNNY     34  14  44 NW18G29   30.13R WCI  23          
ROGERS         SUNNY     33  14  45 NW20G28   30.11R WCI  21          
SILOAM SPGS    SUNNY     34  12  40 NW25G33   30.14S WCI  21          
HIGHFILL       SUNNY     34  18  52 NW20G29   30.12R WCI  23          
SPRINGDALE     SUNNY     34  14  44 NW20G31   30.13R WCI  22          
$$

ARZ004-005-016-091700-
NORTH CENTRAL ARKANSAS
  
CITY           SKY/WX    TMP DP  RH WIND       PRES   REMARKS
BATESVILLE     SUNNY     37  12  35 W13G22    30.03S                  
FLIPPIN        SUNNY    N/A N/A N/A NW24G36   30.02R                  
MTN HOME       SUNNY     32  11  41 NW14G28   30.03R WCI  22          
$$

ARZ040-041-091700-
WEST CENTRAL ARKANSAS
  
CITY           SKY/WX    TMP DP  RH WIND       PRES   REMARKS
MENA           SUNNY     43  18  36 W18G26    30.14R                  
MOUNT IDA      SUNNY     42  15  33 NW9G22    30.09S                  
$$

ARZ009-017-025-026-028-091700-
NORTHEAST ARKANSAS
  
CITY           SKY/WX    TMP DP  RH WIND       PRES   REMARKS
CORNING        FAIR      32  10  40 NW21G29   30.03R WCI  20          
JONESBORO      PTSUNNY   30  13  49 N13G24    30.02R WCI  20          
NEWPORT        SUNNY     38  11  33 NW21G28   30.04R                  
WALNUT RIDGE   MOSUNNY   30  10  43 N23G32    30.04R WCI  17          
BLYTHEVILLE    CLOUDY    31  17  56 NW15      30.02R WCI  20          
NW BLYTHEVILLE CLOUDY    30  16  55 NW15G28   30.02R WCI  19          
$$

ARZ022-023-033-042-044-091700-
CENTRAL ARKANSAS
  
CITY           SKY/WX    TMP DP  RH WIND       PRES   REMARKS
LITTLE ROCK    MOSUNNY   42  18  37 NW25G31   30.07S                  
N LITTLE ROCK  MOSUNNY   40  20  45 W9G24     30.07S                  
JACKSONVILLE   SUNNY     40  18  40 W16G28    30.04S                  
SEARCY         PTSUNNY   39  18  41 NW17      30.05S                  
HOT SPRINGS    SUNNY     42  17  36 NW10G23   30.10R                  
RUSSELLVILLE   SUNNY     40  19  43 W18G25    30.08R                  
CLINTON        FAIR      37  10  32 W23G31    30.06R                  
$$

ARZ036-091700-
EAST ARKANSAS
  
CITY           SKY/WX    TMP DP  RH WIND       PRES   REMARKS
WEST MEMPHIS   MOSUNNY   34  16  47 NW16G30   30.02R WCI  24          
$$

ARZ050-053-066-070-073-091700-
SOUTHWEST ARKANSAS
  
CITY           SKY/WX    TMP DP  RH WIND       PRES   REMARKS
ARKADELPHIA    FAIR      45  19  35 W17       30.14S                  
CAMDEN         LGT RAIN  45  14  29 W10G20    30.14F                  
TEXARKANA      SUNNY     44  18  35 NW14G26   30.20S                  
EL DORADO      SUNNY     44  17  33 W16G22    30.15F                  
DE QUEEN       SUNNY     42  20  41 NW17      30.18F                  
$$

ARZ056-057-069-091700-
SOUTHEAST ARKANSAS
  
CITY           SKY/WX    TMP DP  RH WIND       PRES   REMARKS
PINE BLUFF     LGT RAIN  41  18  39 W13       30.08F                  
STUTTGART      MOSUNNY   41  21  45 W21       30.06S                  
MONTICELLO     SUNNY     43  18  36 W16G24    30.08F                  

$$


  


USA.gov is the U.S. government's official web portal to all federal, state and local government web resources and services.